H1 CPF 1 NER 2017 4 8 9 5981 glonass131 H2 1301901 9131 39155 2017 4 8 0 0 0 2017 4 11 23 45 0 900 1 1 0 0 0 H9 10 0 57851 0.00000 0 -15353112.465 10927627.832 17205224.061 10 0 57851 900.00000 0 -17266033.403 11433658.971 14900323.083 10 0 57851 1800.00000 0 -18847341.528 11996260.481 12306134.442 10 0 57851 2700.00000 0 -20068955.472 12561312.453 9472852.773 10 0 57851 3600.00000 0 -20915513.426 13071789.129 6455395.792 10 0 57851 4500.00000 0 -21384841.287 13470331.593 3312346.129 10 0 57851 5400.00000 0 -21487880.794 13701854.882 104814.587 10 0 57851 6300.00000 0 -21248079.090 13716078.256 -3104753.166 10 0 57851 7200.00000 0 -20700264.312 13469869.737 -6253802.486 10 0 57851 8100.00000 0 -19889054.059 12929303.363 -9280903.204 10 0 57851 9000.00000 0 -18866863.878 12071339.320 -12126965.021 10 0 57851 9900.00000 0 -17691600.487 10885053.111 -14736409.171 10 0 57851 10800.00000 0 -16424138.314 9372359.081 -17058271.649 10 0 57851 11700.00000 0 -15125687.479 7548195.424 -19047214.701 10 0 57851 12600.00000 0 -13855166.075 5440161.079 -20664425.233 10 0 57851 13500.00000 0 -12666689.350 3087618.557 -21878381.544 10 0 57851 14400.00000 0 -11607283.106 540299.756 -22665472.723 10 0 57851 15300.00000 0 -10714918.721 -2143526.769 -23010458.358 10 0 57851 16200.00000 0 -10016952.955 -4899249.979 -22906759.839 10 0 57851 17100.00000 0 -9529038.032 -7658379.653 -22356578.141 10 0 57851 18000.00000 0 -9254546.959 -10351175.114 -21370836.665 10 0 57851 18900.00000 0 -9184536.861 -12909329.169 -19968951.364 10 0 57851 19800.00000 0 -9298249.893 -15268595.026 -18178433.853 10 0 57851 20700.00000 0 -9564128.498 -17371246.694 -16034336.546 10 0 57851 21600.00000 0 -9941299.891 -19168270.956 -13578551.928 10 0 57851 22500.00000 0 -10381465.010 -20621200.674 -10858980.816 10 0 57851 23400.00000 0 -10831110.332 -21703514.516 -7928586.977 10 0 57851 24300.00000 0 -11233947.684 -22401546.927 -4844357.493 10 0 57851 25200.00000 0 -11533478.068 -22714872.758 -1666189.812 10 0 57851 26100.00000 0 -11675570.809 -22656153.041 1544272.278 10 0 57851 27000.00000 0 -11610949.228 -22250451.044 4724830.938 10 0 57851 27900.00000 0 -11297478.490 -21534049.429 7813931.899 10 0 57851 28800.00000 0 -10702159.979 -20552819.951 10751844.574 10 0 57851 29700.00000 0 -9802749.237 -19360215.286 13481802.778 10 0 57851 30600.00000 0 -8588930.292 -18014967.639 15951085.219 10 0 57851 31500.00000 0 -7062997.829 -16578590.326 18112016.282 10 0 57851 32400.00000 0 -5240018.706 -15112785.981 19922869.576 10 0 57851 33300.00000 0 -3147465.718 -13676868.434 21348658.505 10 0 57851 34200.00000 0 -824337.878 -12325304.312 22361800.190 10 0 57851 35100.00000 0 1680197.810 -11105475.219 22942641.340 10 0 57851 36000.00000 0 4308588.913 -10055752.194 23079836.849 10 0 57851 36900.00000 0 6997033.003 -9203961.518 22770574.222 10 0 57851 37800.00000 0 9677880.226 -8566305.040 22020639.311 10 0 57851 38700.00000 0 12282206.219 -8146779.881 20844321.283 10 0 57851 39600.00000 0 14742451.077 -7937122.193 19264157.271 10 0 57851 40500.00000 0 16995016.906 -7917278.270 17310519.822 10 0 57851 41400.00000 0 18982717.422 -8056384.621 15021052.975 10 0 57851 42300.00000 0 20656978.160 -8314217.482 12439965.675 10 0 57851 43200.00000 0 21979695.487 -8643052.306 9617194.110 10 0 57851 44100.00000 0 22924675.923 -8989856.170 6607447.377 10 0 57851 45000.00000 0 23478594.118 -9298721.332 3469153.754 10 0 57851 45900.00000 0 23641427.708 -9513437.163 263327.330 10 0 57851 46800.00000 0 23426349.038 -9580090.979 -2947623.048 10 0 57851 47700.00000 0 22859076.823 -9449586.217 -6101118.647 10 0 57851 48600.00000 0 21976713.945 -9079969.248 -9135644.541 10 0 57851 49500.00000 0 20826119.857 -8438463.685 -11991966.533 10 0 57851 50400.00000 0 19461886.347 -7503123.317 -14614305.618 10 0 57851 51300.00000 0 17944002.770 -6264030.918 -16951445.216 10 0 57851 52200.00000 0 16335310.395 -4723989.697 -18957747.768 10 0 57851 53100.00000 0 14698854.750 -2898676.107 -20594059.251 10 0 57851 54000.00000 0 13095249.144 -816245.951 -21828482.846 10 0 57851 54900.00000 0 11580161.828 1483590.655 -22637005.943 10 0 57851 55800.00000 0 10202033.714 3950986.964 -23003967.965 10 0 57851 56700.00000 0 9000123.180 6527810.405 -22922360.114 10 0 57851 57600.00000 0 8002960.112 9149848.582 -22393951.721 10 0 57851 58500.00000 0 7227273.407 11749277.463 -21429241.651 10 0 57851 59400.00000 0 6677435.617 14257287.989 -20047236.768 10 0 57851 60300.00000 0 6345446.063 16606760.897 -18275063.021 10 0 57851 61200.00000 0 6211450.828 18734877.819 -16147418.024 10 0 57851 62100.00000 0 6244775.098 20585559.897 -13705877.119 10 0 57851 63000.00000 0 6405421.777 22111632.815 -10998067.607 10 0 57851 63900.00000 0 6645970.809 23276628.984 -8076728.480 10 0 57851 64800.00000 0 6913797.013 24056153.299 -4998674.879 10 0 57851 65700.00000 0 7153511.271 24438757.415 -1823688.196 10 0 57851 66600.00000 0 7309521.026 24426288.373 1386645.962 10 0 57851 67500.00000 0 7328601.600 24033699.294 4570129.216 10 0 57851 68400.00000 0 7162369.924 23288332.251 7665148.279 10 0 57851 69300.00000 0 6769556.927 22228705.334 10611856.421 10 0 57851 70200.00000 0 6117983.682 20902856.071 13353316.557 10 0 57851 71100.00000 0 5186159.044 19366311.270 15836585.113 10 0 57851 72000.00000 0 3964432.476 17679768.232 18013717.106 10 0 57851 72900.00000 0 2455654.128 15906583.624 19842674.795 10 0 57851 73800.00000 0 675314.459 14110173.584 21288124.078 10 0 57851 74700.00000 0 -1348843.094 12351431.946 22322104.879 10 0 57851 75600.00000 0 -3577721.597 10686272.245 22924563.980 10 0 57851 76500.00000 0 -5962246.819 9163393.997 23083741.012 10 0 57851 77400.00000 0 -8445165.341 7822364.632 22796400.555 10 0 57851 78300.00000 0 -10963192.690 6692095.622 22067905.741 10 0 57851 79200.00000 0 -13449425.210 5789775.559 20912131.154 10 0 57851 80100.00000 0 -15835918.186 5120304.534 19351215.353 10 0 57851 81000.00000 0 -18056325.416 4676253.837 17415156.008 10 0 57851 81900.00000 0 -20048492.213 4438353.580 15141253.329 10 0 57851 82800.00000 0 -21756894.719 4376489.052 12573410.355 10 0 57851 83700.00000 0 -23134823.973 4451165.302 9761301.542 10 0 57851 84600.00000 0 -24146222.832 4615379.526 6759423.884 10 0 57851 85500.00000 0 -24767097.529 4816823.219 3626047.741 10 0 57852 0.00000 0 -24986442.983 5000321.377 422087.008 10 0 57852 900.00000 0 -24806640.781 5110405.019 -2790089.877 10 0 57852 1800.00000 0 -24243311.985 5093907.801 -5947883.334 10 0 57852 2700.00000 0 -23324627.988 4902473.555 -8989696.783 10 0 57852 3600.00000 0 -22090108.851 4494867.748 -11856155.005 10 0 57852 4500.00000 0 -20588958.278 3838991.195 -14491281.345 10 0 57852 5400.00000 0 -18878006.045 2913508.516 -16843608.883 10 0 57852 6300.00000 0 -17019345.195 1709019.588 -18867202.087 10 0 57852 7200.00000 0 -15077764.764 228722.266 -20522567.361 10 0 57852 8100.00000 0 -13118087.499 -1511463.497 -21777433.604 10 0 57852 9000.00000 0 -11202525.935 -3483316.661 -22607386.814 10 0 57852 9900.00000 0 -9388169.167 -5647264.170 -22996346.024 10 0 57852 10800.00000 0 -7724706.585 -7953818.429 -22936871.518 10 0 57852 11700.00000 0 -6252484.240 -10345442.596 -22430299.811 10 0 57852 12600.00000 0 -5000974.930 -12758764.905 -21486703.661 10 0 57852 13500.00000 0 -3987724.925 -15127048.636 -20124678.940 10 0 57852 14400.00000 0 -3217819.663 -17382813.726 -18370963.755 10 0 57852 15300.00000 0 -2683888.500 -19460499.889 -16259898.546 10 0 57852 16200.00000 0 -2366645.545 -21299059.726 -13832738.992 10 0 57852 17100.00000 0 -2235940.941 -22844373.741 -11136836.302 10 0 57852 18000.00000 0 -2252275.532 -24051386.941 -8224702.090 10 0 57852 18900.00000 0 -2368712.555 -24885878.886 -5152976.987 10 0 57852 19800.00000 0 -2533103.581 -25325794.790 -1981323.843 10 0 57852 20700.00000 0 -2690533.305 -25362083.869 1228732.327 10 0 57852 21600.00000 0 -2785879.026 -24999011.950 4414994.936 10 0 57852 22500.00000 0 -2766376.539 -24253937.347 7515793.924 10 0 57852 23400.00000 0 -2584084.416 -23156561.191 10471168.560 10 0 57852 24300.00000 0 -2198143.451 -21747685.068 13224012.922 10 0 57852 25200.00000 0 -1576737.011 -20077528.865 15721163.089 10 0 57852 26100.00000 0 -698670.793 -18203679.315 17914406.476 10 0 57852 27000.00000 0 445493.661 -16188754.451 19761395.535 10 0 57852 27900.00000 0 1852798.933 -14097880.263 21226449.947 10 0 57852 28800.00000 0 3507772.169 -11996083.154 22281233.422 10 0 57852 29700.00000 0 5382831.962 -9945704.745 22905293.482 10 0 57852 30600.00000 0 7439206.302 -8003944.460 23086454.830 10 0 57852 31500.00000 0 9628325.519 -6220630.148 22821059.128 10 0 57852 32400.00000 0 11893634.893 -4636307.692 22114046.491 10 0 57852 33300.00000 0 14172754.434 -3280727.838 20978876.328 10 0 57852 34200.00000 0 16399898.769 -2171792.624 19437287.761 10 0 57852 35100.00000 0 18508459.033 -1315005.226 17518902.447 10 0 57852 36000.00000 0 20433641.283 -703446.668 15260675.360 10 0 57852 36900.00000 0 22115052.694 -318281.313 12706201.949 10 0 57852 37800.00000 0 23499128.069 -129771.028 9904892.953 10 0 57852 38700.00000 0 24541294.867 -98756.580 6911030.996 10 0 57852 39600.00000 0 25207784.883 -178544.818 3782725.953 10 0 57852 40500.00000 0 25477014.894 -317122.515 580788.589 10 0 57852 41400.00000 0 25340476.191 -459603.218 -2632455.787 10 0 57852 42300.00000 0 24803093.337 -550802.863 -5794389.926 10 0 57852 43200.00000 0 23883035.079 -537833.602 -8843338.629 10 0 57852 44100.00000 0 22610983.692 -372603.948 -11719788.537 10 0 57852 45000.00000 0 21028892.515 -14116.876 -14367568.004 10 0 57852 45900.00000 0 19188283.589 569534.125 -16734962.157 10 0 57852 46800.00000 0 17148157.273 1399558.213 -18775739.567 10 0 57852 47700.00000 0 14972602.636 2485319.905 -20450068.839 10 0 57852 48600.00000 0 12728210.197 3823701.835 -21725306.082 10 0 57852 49500.00000 0 10481396.969 5399005.973 -22576637.100 10 0 57852 50400.00000 0 8295757.350 7183398.300 -22987561.460 10 0 57852 51300.00000 0 6229551.816 9137878.644 -22950209.148 10 0 57852 52200.00000 0 4333439.027 11213734.748 -22465484.157 10 0 57852 53100.00000 0 2648546.199 13354418.974 -21543033.080 10 0 57852 54000.00000 0 1204957.559 15497768.194 -20201040.359 10 0 57852 54900.00000 0 20682.584 17578473.042 -18465855.441 10 0 57852 55800.00000 0 -898854.927 19530692.274 -16371460.382 10 0 57852 56700.00000 0 -1560788.287 21290702.328 -13958789.597 10 0 57852 57600.00000 0 -1984244.047 22799470.960 -11274916.228 10 0 57852 58500.00000 0 -2199269.578 24005047.465 -8372122.189 10 0 57852 59400.00000 0 -2245300.161 24864670.092 -5306870.976 10 0 57852 60300.00000 0 -2169232.783 25346503.611 -2138704.012 10 0 57852 61200.00000 0 -2023189.837 25430935.758 1070917.364 10 0 57852 62100.00000 0 -1862068.534 25111380.042 4259801.523 10 0 57852 63000.00000 0 -1740980.144 24394553.058 7366224.845 10 0 57852 63900.00000 0 -1712687.236 23300216.456 10330115.773 10 0 57852 64800.00000 0 -1825146.559 21860395.907 13094202.589 10 0 57852 65700.00000 0 -2119260.281 20118110.565 15605103.902 10 0 57852 66600.00000 0 -2626929.182 18125666.518 17814342.188 10 0 57852 67500.00000 0 -3369488.727 15942585.128 19679262.517 10 0 57852 68400.00000 0 -4356592.935 13633251.621 21163840.502 10 0 57852 69300.00000 0 -5585592.643 11264380.321 22239365.486 10 0 57852 70200.00000 0 -7041434.538 8902399.964 22884987.232 10 0 57852 71100.00000 0 -8697086.327 6610865.481 23088116.614 10 0 57852 72000.00000 0 -10514472.007 4448001.588 22844673.030 10 0 57852 72900.00000 0 -12445880.553 2464478.124 22159173.725 10 0 57852 73800.00000 0 -14435792.056 701507.878 21044662.526 10 0 57852 74700.00000 0 -16423047.957 -810655.052 19522478.127 10 0 57852 75600.00000 0 -18343277.660 -2053754.439 17621864.599 10 0 57852 76500.00000 0 -20131482.593 -3022065.242 15379429.543 10 0 57852 77400.00000 0 -21724671.444 -3722398.158 12838458.171 10 0 57852 78300.00000 0 -23064437.325 -4173574.315 10048094.438 10 0 57852 79200.00000 0 -24099368.945 -4405391.086 7062403.200 10 0 57852 80100.00000 0 -24787193.865 -4457121.492 3939330.235 10 0 57852 81000.00000 0 -25096562.265 -4375609.742 739579.520 10 0 57852 81900.00000 0 -25008394.167 -4213043.139 -2474570.630 10 0 57852 82800.00000 0 -24516730.991 -4024494.928 -5640488.924 10 0 57852 83700.00000 0 -23629053.246 -3865343.165 -8696425.100 10 0 57852 84600.00000 0 -22366048.818 -3788676.626 -11582731.044 10 0 57852 85500.00000 0 -20760840.010 -3842799.797 -14243043.250 10 0 57853 0.00000 0 -18857700.889 -4068945.048 -16625401.652 10 0 57853 900.00000 0 -16710318.335 -4499291.884 -18683281.390 10 0 57853 1800.00000 0 -14379670.762 -5155378.144 -20376515.130 10 0 57853 2700.00000 0 -11931613.748 -6046974.655 -21672087.467 10 0 57853 3600.00000 0 -9434275.326 -7171470.126 -22544784.686 10 0 57853 4500.00000 0 -6955371.264 -8513794.845 -22977686.901 10 0 57853 5400.00000 0 -4559553.707 -10046886.141 -22962493.193 10 0 57853 6300.00000 0 -2305904.755 -11732676.222 -22499673.877 10 0 57853 7200.00000 0 -245679.942 -13523560.218 -21598447.728 10 0 57853 8100.00000 0 1579604.593 -15364281.970 -20276585.721 10 0 57853 9000.00000 0 3139662.581 -17194157.444 -18560046.281 10 0 57853 9900.00000 0 4416445.226 -18949541.434 -16482450.474 10 0 57853 10800.00000 0 5404626.313 -20566433.279 -14084408.690 10 0 57853 11700.00000 0 6111547.441 -21983111.798 -11412713.131 10 0 57853 12600.00000 0 6556628.767 -23142688.699 -8519413.093 10 0 57853 13500.00000 0 6770273.226 -23995473.712 -5460792.019 10 0 57853 14400.00000 0 6792313.220 -24501052.950 -2296267.043 10 0 57853 15300.00000 0 6670067.685 -24629994.429 912766.927 10 0 57853 16200.00000 0 6456093.318 -24365110.695 4104125.880 10 0 57853 17100.00000 0 6205726.045 -23702227.161 7216035.117 10 0 57853 18000.00000 0 5974516.904 -22650425.568 10188314.553 10 0 57853 18900.00000 0 5815670.331 -21231753.718 12963528.761 10 0 57853 19800.00000 0 5777592.163 -19480414.584 15488080.739 10 0 57853 20700.00000 0 5901649.533 -17441469.173 17713229.609 10 0 57853 21600.00000 0 6220235.773 -15169107.016 19596014.356 10 0 57853 22500.00000 0 6755220.538 -12724555.553 21100067.507 10 0 57853 23400.00000 0 7516849.495 -10173713.932 22196304.689 10 0 57853 24300.00000 0 8503139.483 -7584607.633 22863478.229 10 0 57853 25200.00000 0 9699794.955 -5024767.266 23088585.182 10 0 57853 26100.00000 0 11080650.358 -2558637.972 22867122.396 10 0 57853 27000.00000 0 12608621.808 -245124.577 22203183.682 10 0 57853 27900.00000 0 14237130.678 1864627.675 21109396.497 10 0 57853 28800.00000 0 15911942.277 3729126.087 19606698.098 10 0 57853 29700.00000 0 17573345.536 5318019.419 17723953.765 10 0 57853 30600.00000 0 19158585.094 6613121.101 15497422.320 10 0 57853 31500.00000 0 20604445.972 7608923.673 12970077.135 10 0 57853 32400.00000 0 21849883.881 8312582.303 10190793.564 10 0 57853 33300.00000 0 22838591.312 8743367.034 7213416.644 10 0 57853 34200.00000 0 23521391.157 8931605.699 4095725.797 10 0 57853 35100.00000 0 23858355.993 8917161.147 898315.738 10 0 57853 36000.00000 0 23820561.846 8747506.495 -2316584.840 10 0 57853 36900.00000 0 23391400.179 8475479.765 -5486333.308 10 0 57853 37800.00000 0 22567390.225 8156813.542 -8549107.046 10 0 57853 38700.00000 0 21358454.901 7847545.529 -11445125.792 10 0 57853 39600.00000 0 19787646.561 7601421.480 -14117836.625 10 0 57853 40500.00000 0 17890332.525 7467402.728 -16515036.597 10 0 57853 41400.00000 0 15712873.658 7487386.228 -18589909.248 10 0 57853 42300.00000 0 13310851.327 7694235.948 -20301953.108 10 0 57853 43200.00000 0 10746917.461 8110210.934 -21617782.824 10 0 57853 44100.00000 0 8088358.599 8745858.160 -22511786.470 10 0 57853 45000.00000 0 5404477.050 9599417.969 -22966625.816 10 0 57853 45900.00000 0 2763899.690 10656767.744 -22973569.907 10 0 57853 46800.00000 0 231927.711 11891906.120 -22532655.940 10 0 57853 47700.00000 0 -2131961.551 13267956.821 -21652675.109 10 0 57853 48600.00000 0 -4276356.549 14738648.932 -20350984.770 10 0 57853 49500.00000 0 -6159804.505 16250210.270 -18653151.763 10 0 57853 50400.00000 0 -7752277.796 17743592.996 -16592435.199 10 0 57853 51300.00000 0 -9036154.638 19156936.816 -14209120.068 10 0 57853 52200.00000 0 -10006675.770 20428165.406 -11549715.900 10 0 57853 53100.00000 0 -10671860.943 21497606.352 -8666037.322 10 0 57853 54000.00000 0 -11051892.014 22310524.417 -5614185.404 10 0 57853 54900.00000 0 -11177991.594 22819462.010 -2453450.450 10 0 57853 55800.00000 0 -11090847.250 22986289.244 754841.779 10 0 57853 56700.00000 0 -10838649.892 22783878.591 3948517.707 10 0 57853 57600.00000 0 -10474830.666 22197335.134 7065754.460 10 0 57853 58500.00000 0 -10055592.653 21224732.202 10046266.345 10 0 57853 59400.00000 0 -9637341.643 19877322.820 12832457.141 10 0 57853 60300.00000 0 -9274123.777 18179219.074 15370517.071 10 0 57853 61200.00000 0 -9015177.013 16166553.324 17611444.657 10 0 57853 62100.00000 0 -8902698.161 13886156.195 19511975.398 10 0 57853 63000.00000 0 -8969918.011 11393805.654 21035401.157 10 0 57853 63900.00000 0 -9239564.199 8752118.768 22152266.039 10 0 57853 64800.00000 0 -9722775.501 6028171.770 22840926.850 10 0 57853 65700.00000 0 -10418512.887 3290944.887 23087968.403 10 0 57853 66600.00000 0 -11313492.448 608695.445 22888466.175 10 0 57853 67500.00000 0 -12382644.230 -1953634.399 22246091.278 10 0 57853 68400.00000 0 -13590079.593 -4336870.105 21173055.011 10 0 57853 69300.00000 0 -14890528.922 -6489817.441 19689892.869 10 0 57853 70200.00000 0 -16231192.053 -8371144.814 17825090.436 10 0 57853 71100.00000 0 -17553926.438 -9950857.654 15614556.297 10 0 57853 72000.00000 0 -18797683.497 -11211303.313 13100949.977 10 0 57853 72900.00000 0 -19901092.544 -12147664.048 10332875.741 10 0 57853 73800.00000 0 -20805084.625 -12767916.537 7363955.906 10 0 57853 74700.00000 0 -21455445.844 -13092258.444 4251800.297 10 0 57853 75600.00000 0 -21805191.823 -13152025.145 1056890.885 10 0 57853 76500.00000 0 -21816661.518 -12988141.449 -2158596.922 10 0 57853 77400.00000 0 -21463239.804 -12649173.297 -5332012.911 10 0 57853 78300.00000 0 -20730633.521 -12189062.053 -8401465.894 10 0 57853 79200.00000 0 -19617644.397 -11664638.081 -11307047.213 10 0 57853 80100.00000 0 -18136403.711 -11133020.305 -13992018.157 10 0 57853 81000.00000 0 -16312056.709 -10649013.732 -16403936.250 10 0 57853 81900.00000 0 -14181908.456 -10262617.264 -18495696.578 10 0 57853 82800.00000 0 -11794066.229 -10016749.453 -20226466.117 10 0 57853 83700.00000 0 -9205635.241 -9945290.423 -21562491.599 10 0 57853 84600.00000 0 -6480543.621 -10071524.346 -22477764.298 10 0 57853 85500.00000 0 -3687088.554 -10407049.405 -22954528.358 10 0 57854 0.00000 0 -895307.096 -10951201.752 -22983622.831 10 0 57854 900.00000 0 1825717.727 -11691018.005 -22564651.182 10 0 57854 1800.00000 0 4410502.403 -12601736.383 -21705975.876 10 0 57854 2700.00000 0 6799649.063 -13647815.802 -20424538.980 10 0 57854 3600.00000 0 8942069.816 -14784427.197 -18745513.696 10 0 57854 4500.00000 0 10796856.584 -15959353.784 -16701794.766 10 0 57854 5400.00000 0 12334720.583 -17115218.407 -14333339.086 10 0 57854 6300.00000 0 13538943.471 -18191943.086 -11686370.570 10 0 57854 7200.00000 0 14405803.064 -19129336.227 -8812466.030 10 0 57854 8100.00000 0 14944458.903 -19869698.066 -5767540.877 10 0 57854 9000.00000 0 15176305.613 -20360334.588 -2610755.217 10 0 57854 9900.00000 0 15133824.090 -20555874.454 596637.704 10 0 57854 10800.00000 0 14858981.526 -20420292.269 3792478.018 10 0 57854 11700.00000 0 14401249.556 -19928554.136 6914897.777 10 0 57854 12600.00000 0 13815325.352 -19067817.600 9903508.525 10 0 57854 13500.00000 0 13158652.220 -17838136.770 12700555.767 10 0 57854 14400.00000 0 12488843.943 -16252644.028 15252019.113 10 0 57854 15300.00000 0 11861120.520 -14337201.276 17508638.236 10 0 57854 16200.00000 0 11325861.881 -12129535.330 19426846.503 10 0 57854 17100.00000 0 10926380.874 -9677892.865 20969596.051 10 0 57854 18000.00000 0 10697007.512 -7039269.715 22107060.007 10 0 57854 18900.00000 0 10661563.549 -4277286.286 22817199.822 10 0 57854 19800.00000 0 10832290.493 -1459794.918 23086187.885 10 0 57854 20700.00000 0 11209275.744 1343684.096 22908677.808 10 0 57854 21600.00000 0 11780401.346 4064594.266 22287917.223 10 0 57854 22500.00000 0 12521818.690 6637935.923 21235700.256 10 0 57854 23400.00000 0 13398931.021 9004715.036 19772159.408 10 0 57854 24300.00000 0 14367844.746 11114147.868 17925399.152 10 0 57854 25200.00000 0 15377231.037 12925530.832 15730976.246 10 0 57854 26100.00000 0 16370521.753 14409697.903 13231234.606 10 0 57854 27000.00000 0 17288349.263 15550004.504 10474505.468 10 0 57854 27900.00000 0 18071128.709 16342795.877 7514186.323 10 0 57854 28800.00000 0 18661674.319 16797339.123 4407715.107 10 0 57854 29700.00000 0 19007739.028 16935220.553 1215458.613 10 0 57854 30600.00000 0 19064368.873 16789232.650 -2000463.574 10 0 57854 31500.00000 0 18795970.752 16401796.822 -5177396.251 10 0 57854 32400.00000 0 18178003.645 15822988.355 -8253382.214 10 0 57854 33300.00000 0 17198219.051 15108247.468 -11168386.860 10 0 57854 34200.00000 0 15857395.484 14315874.273 -13865487.972 10 0 57854 35100.00000 0 14169533.530 13504415.154 -16292005.631 10 0 57854 36000.00000 0 12161501.138 12730053.009 -18400548.326 10 0 57854 36900.00000 0 9872142.711 12044113.750 -20149953.129 10 0 57854 37800.00000 0 7350888.614 11490796.411 -21506100.294 10 0 57854 38700.00000 0 4655923.255 11105224.405 -22442585.549 10 0 57854 39600.00000 0 1851988.927 10911901.382 -22941236.450 10 0 57854 40500.00000 0 -992082.071 10923637.413 -22992462.847 10 0 57854 41400.00000 0 -3806003.126 11140990.781 -22595435.033 10 0 57854 42300.00000 0 -6520725.965 11552248.231 -21758086.881 10 0 57854 43200.00000 0 -9071077.537 12133943.377 -20496944.978 10 0 57854 44100.00000 0 -11398231.200 12851889.887 -18836788.247 10 0 57854 45000.00000 0 -13451909.621 13662684.163 -16810146.036 10 0 57854 45900.00000 0 -15192228.734 14515612.408 -14456645.740 10 0 57854 46800.00000 0 -16591107.578 15354880.046 -11822223.953 10 0 57854 47700.00000 0 -17633187.383 16122068.151 -8958217.730 10 0 57854 48600.00000 0 -18316224.229 16758712.339 -5920354.697 10 0 57854 49500.00000 0 -18650941.788 17208894.883 -2767662.510 10 0 57854 50400.00000 0 -18660353.272 17421740.755 438680.444 10 0 57854 51300.00000 0 -18378583.787 17353712.837 3636530.446 10 0 57854 52200.00000 0 -17849244.927 16970610.420 6763976.971 10 0 57854 53100.00000 0 -17123431.586 16249187.930 9760531.366 10 0 57854 54000.00000 0 -16257426.289 15178326.925 12568283.467 10 0 57854 54900.00000 0 -15310207.754 13759713.113 15133004.889 10 0 57854 55800.00000 0 -14340867.960 12007990.673 17405179.052 10 0 57854 56700.00000 0 -13406045.134 9950387.581 19340939.706 10 0 57854 57600.00000 0 -12557478.898 7625827.115 20902901.650 10 0 57854 58500.00000 0 -11839788.431 5083561.511 22060869.235 10 0 57854 59400.00000 0 -11288565.112 2381382.897 22792410.522 10 0 57854 60300.00000 0 -10928858.146 -416516.490 23083287.155 10 0 57854 61200.00000 0 -10774115.732 -3241948.551 22927732.221 10 0 57854 62100.00000 0 -10825625.824 -6025301.179 22328570.839 10 0 57854 63000.00000 0 -11072480.352 -8698173.874 21297180.504 10 0 57854 63900.00000 0 -11492065.500 -11195970.165 19853290.814 10 0 57854 64800.00000 0 -12051059.133 -13460341.250 18024624.747 10 0 57854 65700.00000 0 -12706895.481 -15441380.646 15846386.357 10 0 57854 66600.00000 0 -13409637.635 -17099479.009 13360602.616 10 0 57854 67500.00000 0 -14104180.947 -18406761.734 10615329.933 10 0 57854 68400.00000 0 -14732695.968 -19348048.517 7663738.768 10 0 57854 69300.00000 0 -15237208.655 -19921293.510 4563092.604 10 0 57854 70200.00000 0 -15562208.871 -20137486.215 1373640.180 10 0 57854 71100.00000 0 -15657176.075 -20020015.959 -1842557.894 10 0 57854 72000.00000 0 -15478913.724 -19603525.544 -5022844.797 10 0 57854 72900.00000 0 -14993591.361 -18932301.833 -8105200.868 10 0 57854 73800.00000 0 -14178405.282 -18058271.137 -11029469.236 10 0 57854 74700.00000 0 -13022784.724 -17038684.632 -13738547.898 10 0 57854 75600.00000 0 -11529089.842 -15933592.783 -16179523.145 10 0 57854 76500.00000 0 -9712769.583 -14803217.063 -18304720.343 10 0 57854 77400.00000 0 -7601970.917 -13705331.825 -20072649.807 10 0 57854 78300.00000 0 -5236614.580 -12692768.755 -21448828.031 10 0 57854 79200.00000 0 -2666975.453 -11811150.843 -22406457.347 10 0 57854 80100.00000 0 48172.875 -11096952.706 -22926950.275 10 0 57854 81000.00000 0 2843771.341 -10575969.687 -23000288.378 10 0 57854 81900.00000 0 5650953.242 -10262260.268 -22625209.031 10 0 57854 82800.00000 0 8399682.358 -10157605.720 -21809217.231 10 0 57854 83700.00000 0 11021440.682 -10251508.536 -20568423.232 10 0 57854 84600.00000 0 13451853.364 -10521728.001 -18927210.359 10 0 57854 85500.00000 0 15633141.387 -10935328.346 -16917740.778 99